FYI1648 LEBL-LIMJ

Flight info

Callsign FYI1648
Flight time 1h 11m
Altitude 30000
Route AGENA M985 LUMAS DCT NEVIX DCT ODIXU DCT ADITA DCT RAPED Y15 EGHIN
Aircraft A320/M-SDE3FGHIRWY/LB1

Departure

Time 2026-05-08 19:34
Airport Josep Tarradellas Barcelona-El Prat Airport (LEBL)

Arrival

Time 2026-05-08 20:46
Airport Genoa Cristoforo Colombo Airport (LIMJ)
Time Latitude Longitude Altitude Speed Heading
2026-05-08 19:07 41.29071 2.08163 19 ft 0 kts 335°
2026-05-08 19:22 41.29055 2.08173 19 ft 4 kts 335°
2026-05-08 19:22 41.29031 2.08187 19 ft 2 kts 335°
2026-05-08 19:23 41.29010 2.08197 19 ft 4 kts 358°
2026-05-08 19:23 41.28989 2.08189 22 ft 4 kts 58°
2026-05-08 19:23 41.28979 2.08162 19 ft 2 kts 65°
2026-05-08 19:23 41.28979 2.08160 19 ft 0 kts 65°
2026-05-08 19:26 41.28979 2.08162 19 ft 1 kts 65°
2026-05-08 19:26 41.28991 2.08197 21 ft 11 kts 64°
2026-05-08 19:26 41.29026 2.08296 19 ft 12 kts 72°
2026-05-08 19:27 41.28972 2.08342 18 ft 11 kts 196°
2026-05-08 19:27 41.28904 2.08311 18 ft 10 kts 199°
2026-05-08 19:27 41.28836 2.08280 16 ft 10 kts 199°
2026-05-08 19:27 41.28754 2.08243 16 ft 15 kts 199°
2026-05-08 19:28 41.28712 2.08286 17 ft 9 kts 74°
2026-05-08 19:28 41.28750 2.08401 17 ft 16 kts 65°
2026-05-08 19:28 41.28796 2.08534 17 ft 18 kts 66°
2026-05-08 19:28 41.28856 2.08710 17 ft 22 kts 65°
2026-05-08 19:29 41.28920 2.08899 18 ft 23 kts 65°
2026-05-08 19:29 41.28988 2.09097 16 ft 24 kts 65°
2026-05-08 19:29 41.29058 2.09302 17 ft 25 kts 65°
2026-05-08 19:29 41.29132 2.09516 17 ft 26 kts 65°
2026-05-08 19:30 41.29208 2.09738 18 ft 27 kts 65°
2026-05-08 19:30 41.29291 2.09954 17 ft 25 kts 56°
2026-05-08 19:30 41.29361 2.10150 16 ft 18 kts 66°
2026-05-08 19:30 41.29324 2.10273 13 ft 6 kts 155°
2026-05-08 19:31 41.29321 2.10275 13 ft 0 kts 155°
2026-05-08 19:32 41.29315 2.10279 13 ft 3 kts 155°
2026-05-08 19:32 41.29281 2.10300 13 ft 7 kts 155°
2026-05-08 19:32 41.29237 2.10326 14 ft 5 kts 161°
2026-05-08 19:32 41.29210 2.10298 15 ft 6 kts 247°
2026-05-08 19:33 41.29201 2.10270 17 ft 0 kts 246°
2026-05-08 19:33 41.29198 2.10261 16 ft 11 kts 246°
2026-05-08 19:33 41.29052 2.09836 20 ft 86 kts 246°
2026-05-08 19:34 41.28721 2.08865 20 ft 142 kts 246°
2026-05-08 19:34 41.28257 2.07509 208 ft 169 kts 244°
2026-05-08 19:34 41.27535 2.06325 817 ft 168 kts 204°
2026-05-08 19:34 41.26427 2.05856 1459 ft 168 kts 189°
2026-05-08 19:35 41.25245 2.05558 1948 ft 182 kts 188°
2026-05-08 19:35 41.23929 2.05248 2283 ft 202 kts 188°
2026-05-08 19:35 41.22482 2.04890 2607 ft 223 kts 190°
2026-05-08 19:35 41.20993 2.04465 3522 ft 216 kts 191°
2026-05-08 19:36 41.19530 2.04019 4336 ft 217 kts 192°
2026-05-08 19:36 41.18056 2.03487 5018 ft 225 kts 205°
2026-05-08 19:36 41.16939 2.01997 5544 ft 238 kts 247°
2026-05-08 19:36 41.16818 1.99812 6327 ft 245 kts 285°
2026-05-08 19:37 41.17608 1.97796 7063 ft 250 kts 304°
2026-05-08 19:37 41.18728 1.96011 7828 ft 253 kts 310°
2026-05-08 19:37 41.19913 1.94307 8626 ft 256 kts 310°
2026-05-08 19:37 41.21117 1.92547 9417 ft 259 kts 309°
2026-05-08 19:38 41.22347 1.90742 10180 ft 263 kts 315°
2026-05-08 19:38 41.23837 1.89308 10664 ft 279 kts 327°
2026-05-08 19:38 41.25586 1.87961 10879 ft 303 kts 332°
2026-05-08 19:38 41.27697 1.87170 11059 ft 331 kts 354°
2026-05-08 19:39 41.30040 1.87503 11467 ft 348 kts 16°
2026-05-08 19:39 41.32206 1.89000 12073 ft 357 kts 38°
2026-05-08 19:39 41.33813 1.91522 12745 ft 362 kts 62°
2026-05-08 19:39 41.34598 1.94702 13401 ft 365 kts 80°
2026-05-08 19:40 41.35056 1.98038 14048 ft 369 kts 81°
2026-05-08 19:40 41.35505 2.01425 14583 ft 374 kts 81°
2026-05-08 19:40 41.35955 2.04861 15094 ft 380 kts 81°
2026-05-08 19:40 41.36416 2.08357 15609 ft 386 kts 81°
2026-05-08 19:41 41.36889 2.11899 16121 ft 392 kts 81°
2026-05-08 19:41 41.37374 2.15495 16628 ft 398 kts 81°
2026-05-08 19:41 41.37870 2.19149 17132 ft 404 kts 81°
2026-05-08 19:41 41.38367 2.22854 17629 ft 409 kts 81°
2026-05-08 19:42 41.38867 2.26609 18122 ft 415 kts 81°
2026-05-08 19:42 41.39372 2.30417 18561 ft 421 kts 81°
2026-05-08 19:42 41.39881 2.34271 19029 ft 424 kts 81°
2026-05-08 19:42 41.40397 2.38155 19515 ft 427 kts 81°
2026-05-08 19:43 41.40915 2.42070 19986 ft 431 kts 81°
2026-05-08 19:43 41.41435 2.46011 20459 ft 434 kts 81°
2026-05-08 19:43 41.41957 2.49984 20923 ft 437 kts 81°
2026-05-08 19:43 41.42481 2.53986 21367 ft 440 kts 81°
2026-05-08 19:44 41.43007 2.58013 21826 ft 443 kts 81°
2026-05-08 19:44 41.43538 2.62077 22280 ft 446 kts 81°
2026-05-08 19:44 41.44071 2.66160 22725 ft 449 kts 81°
2026-05-08 19:44 41.44608 2.70277 23150 ft 452 kts 81°
2026-05-08 19:45 41.45143 2.74415 23577 ft 455 kts 81°
2026-05-08 19:45 41.45676 2.78580 23936 ft 458 kts 81°
2026-05-08 19:45 41.46213 2.82773 24292 ft 460 kts 81°
2026-05-08 19:45 41.46751 2.86993 24647 ft 463 kts 81°
2026-05-08 19:46 41.47289 2.91236 24995 ft 465 kts 81°
2026-05-08 19:46 41.47829 2.95499 25338 ft 468 kts 81°
2026-05-08 19:46 41.48925 3.04101 26017 ft 473 kts 81°
2026-05-08 19:47 41.49478 3.08436 26336 ft 475 kts 81°
2026-05-08 19:47 41.50030 3.12787 26686 ft 477 kts 81°
2026-05-08 19:47 41.50580 3.17162 27014 ft 479 kts 81°
2026-05-08 19:47 41.51127 3.21560 27341 ft 482 kts 81°
2026-05-08 19:48 41.51671 3.25981 27677 ft 484 kts 81°
2026-05-08 19:48 41.52217 3.30423 28047 ft 485 kts 81°
2026-05-08 19:48 41.52766 3.34874 28390 ft 487 kts 81°
2026-05-08 19:48 41.53316 3.39339 28717 ft 489 kts 81°
2026-05-08 19:49 41.53870 3.43832 29025 ft 491 kts 81°
2026-05-08 19:49 41.54423 3.48335 29316 ft 493 kts 81°
2026-05-08 19:49 41.55031 3.52854 29612 ft 496 kts 79°
2026-05-08 19:49 41.55734 3.57372 29899 ft 498 kts 78°
2026-05-08 19:50 41.56502 3.61888 30020 ft 496 kts 77°
2026-05-08 19:50 41.57280 3.66299 30053 ft 481 kts 77°
2026-05-08 19:50 41.58776 3.74900 30051 ft 473 kts 77°
2026-05-08 19:51 41.60176 3.83466 30051 ft 471 kts 78°
2026-05-08 19:51 41.61533 3.92015 30054 ft 470 kts 78°
2026-05-08 19:52 41.62902 4.00569 30054 ft 470 kts 78°
2026-05-08 19:52 41.64270 4.09117 30050 ft 470 kts 78°
2026-05-08 19:53 41.65639 4.17659 30049 ft 470 kts 78°
2026-05-08 19:53 41.67002 4.26197 30046 ft 469 kts 78°
2026-05-08 19:54 41.68345 4.34729 30050 ft 468 kts 78°
2026-05-08 19:54 41.69682 4.43257 30077 ft 468 kts 79°
2026-05-08 19:55 41.71012 4.51771 30076 ft 467 kts 79°
2026-05-08 19:55 41.72844 4.60066 30066 ft 466 kts 63°
2026-05-08 19:56 41.74492 4.63775 30074 ft 463 kts 52°
2026-05-08 19:56 41.76609 4.66998 30072 ft 459 kts 40°
2026-05-08 19:56 41.79105 4.69615 30071 ft 454 kts 28°
2026-05-08 19:56 41.81880 4.71567 30067 ft 448 kts 18°
2026-05-08 19:57 41.87616 4.74845 30059 ft 448 kts 19°
2026-05-08 19:57 41.93306 4.78140 30063 ft 449 kts 19°
2026-05-08 19:58 41.99038 4.81465 30059 ft 449 kts 19°
2026-05-08 19:58 42.03840 4.84252 30058 ft 449 kts 19°
2026-05-08 19:59 42.09576 4.87571 30075 ft 449 kts 20°
2026-05-08 19:59 42.15305 4.90899 30070 ft 448 kts 20°
2026-05-08 20:00 42.21028 4.94242 30061 ft 448 kts 20°
2026-05-08 20:00 42.26754 4.97591 30039 ft 448 kts 20°
2026-05-08 20:01 42.32484 5.00938 30056 ft 449 kts 21°
2026-05-08 20:01 42.38231 5.04292 30050 ft 450 kts 21°
2026-05-08 20:02 42.43873 5.07997 30049 ft 452 kts 27°
2026-05-08 20:02 42.49374 5.12144 30059 ft 453 kts 27°
2026-05-08 20:03 42.54885 5.16297 30064 ft 453 kts 27°
2026-05-08 20:03 42.60402 5.20455 30052 ft 454 kts 27°
2026-05-08 20:04 42.65918 5.24634 30056 ft 454 kts 28°
2026-05-08 20:04 42.71436 5.28817 30058 ft 454 kts 27°
2026-05-08 20:05 42.76955 5.33017 30047 ft 455 kts 30°
2026-05-08 20:05 42.79441 5.35660 30039 ft 455 kts 47°
2026-05-08 20:05 42.81325 5.39096 30038 ft 453 kts 62°
2026-05-08 20:06 42.84360 5.46614 30045 ft 454 kts 63°
2026-05-08 20:06 42.87379 5.54177 30044 ft 454 kts 63°
2026-05-08 20:07 42.90403 5.61750 30053 ft 455 kts 63°
2026-05-08 20:07 42.93423 5.69329 30051 ft 455 kts 63°
2026-05-08 20:08 42.96439 5.76912 30056 ft 454 kts 62°
2026-05-08 20:08 42.99439 5.84473 30069 ft 453 kts 62°
2026-05-08 20:09 43.02433 5.92047 30074 ft 453 kts 63°
2026-05-08 20:09 43.05418 5.99625 30068 ft 453 kts 63°
2026-05-08 20:10 43.08401 6.07201 30089 ft 452 kts 63°
2026-05-08 20:10 43.11377 6.14775 30082 ft 451 kts 62°
2026-05-08 20:11 43.14332 6.22338 30083 ft 450 kts 62°
2026-05-08 20:11 43.17288 6.29896 30081 ft 450 kts 62°
2026-05-08 20:12 43.20235 6.37460 30074 ft 450 kts 62°
2026-05-08 20:12 43.23171 6.45026 30068 ft 449 kts 62°
2026-05-08 20:13 43.26100 6.52592 30081 ft 449 kts 62°
2026-05-08 20:13 43.29022 6.60147 30073 ft 447 kts 62°
2026-05-08 20:14 43.31923 6.67686 30076 ft 446 kts 62°
2026-05-08 20:14 43.34821 6.75223 30078 ft 446 kts 62°
2026-05-08 20:15 43.37698 6.82716 30079 ft 446 kts 62°
2026-05-08 20:15 43.40583 6.90264 30070 ft 446 kts 62°
2026-05-08 20:16 43.43454 6.97809 30099 ft 445 kts 62°
2026-05-08 20:16 43.46309 7.05352 30102 ft 443 kts 62°
2026-05-08 20:17 43.49492 7.12574 30094 ft 441 kts 53°
2026-05-08 20:17 43.53082 7.19428 30082 ft 441 kts 53°
2026-05-08 20:18 43.56644 7.26298 30072 ft 440 kts 53°
2026-05-08 20:18 43.60198 7.33187 30089 ft 441 kts 54°
2026-05-08 20:19 43.63327 7.40433 30077 ft 441 kts 65°
2026-05-08 20:19 43.65851 7.48147 30063 ft 441 kts 65°
2026-05-08 20:20 43.68375 7.55868 30062 ft 441 kts 65°
2026-05-08 20:20 43.70900 7.63593 30035 ft 441 kts 65°
2026-05-08 20:21 43.73573 7.71174 29704 ft 434 kts 56°
2026-05-08 20:21 43.75387 7.74470 29225 ft 427 kts 46°
2026-05-08 20:21 43.77356 7.77515 28773 ft 422 kts 47°
2026-05-08 20:22 43.79297 7.80534 28323 ft 418 kts 47°
2026-05-08 20:22 43.81210 7.83530 27892 ft 413 kts 47°
2026-05-08 20:22 43.83096 7.86498 27455 ft 409 kts 47°
2026-05-08 20:22 43.84336 7.88452 27167 ft 406 kts 47°
2026-05-08 20:23 43.86813 7.92355 26584 ft 401 kts 47°
2026-05-08 20:23 43.88648 7.95247 26152 ft 398 kts 47°
2026-05-08 20:23 43.90466 7.98112 25714 ft 394 kts 47°
2026-05-08 20:23 43.92271 8.00962 25264 ft 392 kts 47°
2026-05-08 20:24 43.94061 8.03797 24815 ft 390 kts 47°
2026-05-08 20:24 43.95843 8.06618 24352 ft 388 kts 47°
2026-05-08 20:24 43.97619 8.09427 23886 ft 387 kts 47°
2026-05-08 20:24 43.99391 8.12227 23372 ft 385 kts 47°
2026-05-08 20:25 44.01151 8.15016 22893 ft 382 kts 47°
2026-05-08 20:25 44.02896 8.17787 22437 ft 379 kts 47°
2026-05-08 20:25 44.04557 8.20615 21974 ft 377 kts 55°
2026-05-08 20:25 44.05810 8.23798 21511 ft 375 kts 67°
2026-05-08 20:26 44.06587 8.27249 21066 ft 373 kts 76°
2026-05-08 20:26 44.07227 8.30739 20623 ft 371 kts 75°
2026-05-08 20:26 44.07867 8.34205 20183 ft 370 kts 75°
2026-05-08 20:26 44.08507 8.37667 19732 ft 368 kts 75°
2026-05-08 20:27 44.09140 8.41105 19295 ft 367 kts 75°
2026-05-08 20:27 44.09776 8.44539 18852 ft 366 kts 75°
2026-05-08 20:27 44.10403 8.47918 18417 ft 365 kts 75°
2026-05-08 20:27 44.11046 8.51373 17935 ft 363 kts 75°
2026-05-08 20:28 44.11674 8.54763 17505 ft 360 kts 75°
2026-05-08 20:28 44.12287 8.58084 17089 ft 357 kts 75°
2026-05-08 20:28 44.12901 8.61422 16670 ft 355 kts 75°
2026-05-08 20:28 44.13516 8.64779 16250 ft 353 kts 75°
2026-05-08 20:29 44.14110 8.68037 15857 ft 351 kts 75°
2026-05-08 20:29 44.14715 8.71363 15446 ft 349 kts 75°
2026-05-08 20:29 44.15310 8.74626 15043 ft 347 kts 75°
2026-05-08 20:29 44.15902 8.77869 14643 ft 345 kts 75°
2026-05-08 20:30 44.16492 8.81095 14261 ft 343 kts 76°
2026-05-08 20:30 44.17076 8.84309 13855 ft 342 kts 76°
2026-05-08 20:30 44.17653 8.87502 13474 ft 338 kts 76°
2026-05-08 20:30 44.18216 8.90630 13047 ft 336 kts 76°
2026-05-08 20:31 44.18785 8.93784 12638 ft 334 kts 76°
2026-05-08 20:31 44.19348 8.96913 12262 ft 331 kts 76°
2026-05-08 20:31 44.19906 9.00020 11810 ft 330 kts 76°
2026-05-08 20:31 44.20459 9.03110 11495 ft 325 kts 76°
2026-05-08 20:32 44.20994 9.06116 11384 ft 314 kts 76°
2026-05-08 20:32 44.21510 9.09021 11247 ft 304 kts 77°
2026-05-08 20:32 44.21644 9.11892 11118 ft 294 kts 100°
2026-05-08 20:32 44.20916 9.14478 11003 ft 283 kts 126°
2026-05-08 20:33 44.19557 9.16351 10934 ft 270 kts 143°
2026-05-08 20:33 44.18092 9.17901 10880 ft 259 kts 143°
2026-05-08 20:33 44.16687 9.19383 10822 ft 248 kts 143°
2026-05-08 20:33 44.15339 9.20806 10768 ft 240 kts 143°
2026-05-08 20:34 44.14007 9.22210 10617 ft 239 kts 143°
2026-05-08 20:34 44.12682 9.23611 10350 ft 239 kts 143°
2026-05-08 20:34 44.10276 9.26793 9696 ft 243 kts 111°
2026-05-08 20:35 44.10101 9.29097 9395 ft 242 kts 76°
2026-05-08 20:35 44.10886 9.31104 9155 ft 237 kts 44°
2026-05-08 20:35 44.12053 9.32706 8916 ft 235 kts 49°
2026-05-08 20:35 44.13050 9.34491 8681 ft 233 kts 54°
2026-05-08 20:36 44.14060 9.36230 8433 ft 231 kts 38°
2026-05-08 20:36 44.15509 9.37056 8203 ft 227 kts
2026-05-08 20:36 44.17002 9.36499 7982 ft 225 kts 324°
2026-05-08 20:36 44.18171 9.35056 7757 ft 226 kts 317°
2026-05-08 20:37 44.19395 9.33680 7492 ft 226 kts 322°
2026-05-08 20:37 44.20665 9.32389 7279 ft 225 kts 323°
2026-05-08 20:37 44.21930 9.31124 7058 ft 223 kts 323°
2026-05-08 20:37 44.23179 9.29864 6865 ft 220 kts 323°
2026-05-08 20:38 44.24407 9.28609 6671 ft 217 kts 322°
2026-05-08 20:38 44.25615 9.27358 6462 ft 215 kts 322°
2026-05-08 20:38 44.26802 9.26116 6269 ft 212 kts 321°
2026-05-08 20:38 44.27971 9.24888 6073 ft 209 kts 321°
2026-05-08 20:39 44.29124 9.23676 5859 ft 207 kts 321°
2026-05-08 20:39 44.30276 9.22459 5597 ft 208 kts 322°
2026-05-08 20:39 44.31434 9.21236 5339 ft 209 kts 322°
2026-05-08 20:39 44.32594 9.20011 5087 ft 209 kts 321°
2026-05-08 20:40 44.33571 9.18564 4960 ft 200 kts 303°
2026-05-08 20:40 44.34156 9.16836 4742 ft 195 kts 286°
2026-05-08 20:40 44.34561 9.15035 4476 ft 193 kts 287°
2026-05-08 20:40 44.34964 9.13248 4208 ft 192 kts 287°
2026-05-08 20:41 44.35351 9.11488 3938 ft 192 kts 287°
2026-05-08 20:41 44.35739 9.09710 3673 ft 191 kts 287°
2026-05-08 20:41 44.36122 9.07948 3407 ft 188 kts 288°
2026-05-08 20:41 44.36504 9.06187 3142 ft 186 kts 288°
2026-05-08 20:42 44.36871 9.04494 2889 ft 183 kts 289°
2026-05-08 20:42 44.37239 9.02797 2637 ft 182 kts 289°
2026-05-08 20:42 44.37604 9.01110 2386 ft 180 kts 289°
2026-05-08 20:42 44.37955 8.99486 2128 ft 170 kts 289°
2026-05-08 20:43 44.38282 8.97969 1902 ft 156 kts 289°
2026-05-08 20:43 44.38587 8.96560 1683 ft 148 kts 290°
2026-05-08 20:43 44.38883 8.95192 1468 ft 147 kts 289°
2026-05-08 20:43 44.39178 8.93826 1269 ft 147 kts 289°
2026-05-08 20:44 44.39471 8.92468 1056 ft 145 kts 288°
2026-05-08 20:44 44.39765 8.91117 827 ft 145 kts 288°
2026-05-08 20:44 44.39957 8.90228 707 ft 144 kts 289°
2026-05-08 20:44 44.40243 8.88893 525 ft 143 kts 289°
2026-05-08 20:45 44.40523 8.87565 322 ft 143 kts 289°
2026-05-08 20:45 44.40794 8.86223 154 ft 143 kts 288°
2026-05-08 20:45 44.41047 8.84897 21 ft 133 kts 287°
2026-05-08 20:45 44.41231 8.84007 20 ft 54 kts 285°
2026-05-08 20:46 44.41301 8.83683 22 ft 30 kts 282°
2026-05-08 20:46 44.41354 8.83392 22 ft 31 kts 285°
2026-05-08 20:46 44.41418 8.83158 21 ft 23 kts 313°
2026-05-08 20:46 44.41504 8.83090 21 ft 14 kts
2026-05-08 20:47 44.41540 8.83203 22 ft 16 kts 104°
2026-05-08 20:47 44.41511 8.83357 20 ft 17 kts 104°
2026-05-08 20:47 44.41479 8.83526 20 ft 19 kts 105°
2026-05-08 20:47 44.41441 8.83710 22 ft 21 kts 105°
2026-05-08 20:48 44.41403 8.83912 20 ft 22 kts 105°
2026-05-08 20:48 44.41361 8.84129 20 ft 24 kts 105°
2026-05-08 20:48 44.41318 8.84344 20 ft 14 kts 105°
2026-05-08 20:48 44.41348 8.84467 20 ft 15 kts 52°
2026-05-08 20:49 44.41411 8.84592 20 ft 16 kts 71°
2026-05-08 20:49 44.41390 8.84756 20 ft 18 kts 105°
2026-05-08 20:49 44.41414 8.84908 20 ft 17 kts 59°
2026-05-08 20:49 44.41433 8.84954 22 ft 0 kts 60°